Location: Banios
(43.0451°N, 0.2335°E)
Time: 13:49:40
(UTC+00:00)

Cosmos 1953 Rocket - Pass Details

Date: 25 January 2021
Orbit: 604 x 634 km, 82.5° (Epoch: 26 February)

Event Time Altitude Azimuth Distance (km) Brightness Sun altitude
Rises 06:20:32 0° 352° (N) 2,870 6.7 -11.2°
Reaches altitude 10° 06:22:46 10° 353° (N) 1,964 5.9 -10.8°
Maximum altitude 06:27:07 84° 83° (E) 617 3.6 -10.0°
Drops below altitude 10° 06:31:27 10° 171° (S) 1,960 6.5 -9.2°
Sets 06:33:40 0° 172° (S) 2,864 7.3 -8.9°
